Theta_e
357 356 356 357 357 353 350 345 322 330 326 321 320 322 320 331 335 329 329 336 331 336 338 341 338 336 338 333 335 334 335 332 334 326 321 340 352 355 358 353 357 358 362 361 362 364 367 365 366 366 367 368 368 367 368 368 367 368 369 368 367 367 368 367 366 367 367 367 366 365 365 364 365 364 364 364 364 363 364 363 363 363 363 362 361 362 362 362 362 362 361 362 362 361 360 361 360
358 359 358 359 355 351 336 346 327 324 325 320 319 325 327 331 332 328 328 331 333 335 340 340 340 339 340 339 338 336 336 338 341 340 343 348 354 353 355 357 356 356 358 361 363 365 366 367 365 365 366 367 368 368 368 367 367 368 368 368 368 368 367 367 367 367 367 367 365 365 365 365 364 364 364 364 364 363 363 363 363 363 363 363 362 362 361 361 361 362 361 361 361 361 360 361 361
358 358 360 359 353 346 346 342 320 320 316 313 319 326 327 327 326 331 331 337 338 339 340 339 339 338 335 337 334 335 327 343 342 342 343 352 345 349 356 358 360 360 359 357 362 360 365 366 365 365 366 367 368 367 367 368 368 368 368 368 368 368 367 367 367 367 366 365 365 365 365 364 364 364 364 364 363 363 363 363 363 363 363 363 362 362 362 361 362 362 361 361 361 361 360 361 361
361 361 356 355 340 349 333 334 327 320 316 318 318 325 327 329 331 335 337 339 339 340 338 337 335 344 336 331 334 340 336 340 344 343 344 347 351 352 356 359 361 359 359 361 362 364 366 366 365 366 365 367 366 367 367 367 368 367 368 368 368 367 367 366 366 367 366 365 365 365 364 364 364 364 364 363 363 363 364 363 363 363 363 363 363 363 363 362 362 363 361 361 361 360 360 362 360
360 361 359 352 344 331 333 328 324 324 317 318 318 327 330 333 333 336 337 339 340 339 339 338 338 342 341 338 343 336 334 343 344 347 345 351 355 356 355 359 357 356 356 360 362 365 366 365 366 366 366 366 366 366 367 367 367 367 367 367 367 367 366 367 367 367 367 366 366 365 364 364 363 363 363 363 363 363 363 362 362 362 362 362 363 362 362 363 361 361 361 361 360 360 360 361 361
360 358 359 355 334 348 336 325 322 322 323 330 322 326 331 334 334 335 338 340 340 342 341 342 335 335 336 339 342 336 341 336 344 345 348 350 354 357 358 359 356 356 357 361 363 366 366 366 366 366 366 366 366 366 367 367 367 366 367 367 367 367 366 367 368 367 367 367 366 365 364 364 364 363 363 363 363 363 362 362 362 362 362 362 362 362 362 362 362 362 362 361 361 360 360 360 360
353 351 352 351 346 345 328 324 321 322 323 330 326 329 332 334 336 337 337 338 340 340 343 338 340 336 334 339 343 346 348 346 344 347 352 353 355 357 357 357 357 356 359 359 363 365 365 366 366 366 365 365 365 366 367 367 367 367 367 367 367 367 367 368 367 367 367 367 366 366 365 364 363 363 362 362 363 362 362 362 363 362 363 363 362 362 363 362 362 362 362 362 361 361 360 360 360
361 344 344 337 332 336 325 321 321 325 323 331 332 332 334 335 337 336 336 334 334 335 339 340 342 338 335 345 334 344 349 350 349 353 353 354 355 355 357 357 356 356 358 359 362 363 367 365 365 366 365 365 365 366 367 366 367 367 367 367 367 368 368 368 367 367 367 366 366 366 366 365 363 363 362 362 361 362 362 362 362 362 363 363 363 364 363 362 362 362 362 361 360 361 361 361 360
354 345 348 336 326 329 324 322 319 326 327 330 329 334 340 338 337 336 334 334 338 338 338 338 339 333 335 340 338 345 346 349 352 354 352 354 353 355 356 354 356 356 358 360 362 363 364 365 365 365 365 365 366 367 367 367 367 368 367 367 368 368 368 368 367 367 366 366 366 366 366 365 364 363 363 362 362 362 362 362 362 362 362 363 363 362 364 362 361 361 361 362 361 360 360 361 360
347 345 333 333 328 321 322 321 319 324 326 331 332 334 335 337 336 335 333 335 336 338 339 341 341 337 340 334 338 343 345 351 352 350 352 352 353 355 354 355 353 358 357 361 360 361 364 366 365 364 365 365 366 367 367 367 367 367 367 368 368 368 368 367 367 367 366 366 366 365 365 364 364 363 362 363 362 362 363 363 363 363 363 363 363 362 362 362 362 362 362 362 361 360 360 360 360
337 344 340 328 323 317 316 318 321 324 327 330 332 335 336 338 336 335 335 333 339 336 339 340 337 336 339 339 340 349 351 351 348 347 350 352 354 354 354 356 354 357 355 358 359 360 363 364 365 364 365 366 366 367 367 367 368 367 368 368 368 368 367 367 366 366 366 366 365 365 365 364 363 362 362 362 363 363 364 364 363 363 363 363 363 362 362 362 362 362 362 361 361 361 361 361 361
335 334 334 322 325 319 319 319 321 323 327 330 327 335 338 336 336 332 332 333 335 335 336 340 335 339 337 338 339 346 347 350 349 349 351 353 353 353 355 355 356 357 357 354 360 360 362 364 364 364 364 365 366 367 368 367 367 368 367 367 367 367 367 367 366 366 365 365 365 365 365 364 363 361 361 361 362 362 363 363 363 363 363 363 362 362 362 362 362 362 362 362 361 361 361 361 362
337 338 330 325 324 324 318 320 318 321 324 327 329 334 339 336 333 333 333 334 336 334 333 342 340 342 330 336 343 346 345 349 351 351 350 352 353 355 355 355 355 357 357 358 356 359 361 361 361 365 365 365 366 367 368 368 368 368 367 367 367 367 367 367 366 365 365 366 365 365 365 364 364 362 362 361 362 363 363 363 363 363 363 362 362 362 362 361 362 361 361 361 361 361 361 361 362
338 337 335 324 327 321 321 319 321 320 320 327 331 335 337 335 335 335 334 332 334 334 339 342 342 341 336 338 339 341 344 349 350 352 351 352 354 354 354 354 355 357 358 358 358 361 362 361 361 363 365 365 366 368 368 368 368 368 368 367 367 367 367 366 366 366 365 365 365 365 365 364 364 363 363 361 360 362 362 363 363 363 363 363 362 362 362 362 361 362 362 362 362 362 362 362 362
338 342 333 329 324 320 322 319 320 319 318 327 328 332 334 337 337 337 335 333 335 340 342 345 343 337 331 334 334 340 344 348 350 351 351 352 354 354 354 354 355 357 358 357 359 360 360 360 359 362 364 362 364 364 366 369 368 368 368 367 366 366 367 367 366 366 366 365 365 365 364 365 363 362 363 362 362 363 362 362 363 363 363 363 363 362 362 362 361 363 363 363 363 363 363 363 363
340 338 335 327 322 319 320 321 321 320 319 327 330 332 332 333 337 335 339 339 335 339 341 336 344 338 337 337 339 343 345 347 348 351 351 352 354 354 353 354 355 356 358 359 359 361 361 359 360 359 361 361 362 360 364 368 368 367 368 367 367 366 366 366 366 365 365 366 365 365 365 366 364 363 362 363 361 362 363 363 362 363 363 363 363 363 362 363 363 363 364 363 363 363 363 363 363
343 339 327 327 318 319 318 320 320 324 324 329 330 331 329 329 336 336 339 342 334 335 341 337 339 340 339 341 343 345 347 348 349 349 350 351 352 351 352 353 354 354 357 359 361 360 361 361 360 358 360 361 358 359 362 365 368 368 368 367 366 366 366 366 366 365 365 366 366 366 365 366 367 365 365 365 362 364 363 363 362 363 363 363 363 363 363 363 364 364 363 363 364 364 364 363 363
339 331 327 322 323 322 321 321 324 325 326 327 329 331 331 328 333 333 338 336 337 336 336 339 340 343 345 345 347 347 347 347 347 346 345 347 351 349 349 352 352 352 357 358 361 361 362 363 361 359 359 360 359 360 361 362 368 366 365 368 367 368 367 366 368 365 364 366 364 365 367 365 368 367 368 363 364 364 363 363 363 363 363 362 362 363 364 363 363 364 364 363 363 364 363 366 365
333 329 327 322 323 328 333 330 330 329 324 328 330 333 332 331 334 332 332 331 333 334 335 337 338 343 344 345 346 346 346 346 345 345 344 345 348 348 349 351 351 351 354 358 360 361 363 364 363 358 360 361 359 360 359 360 363 364 363 364 364 365 366 367 364 364 363 366 365 362 366 365 361 365 366 366 364 363 364 364 365 365 364 364 363 364 364 364 364 364 364 363 364 365 365 364 365
333 329 325 326 326 333 333 332 331 332 329 328 329 330 332 332 334 331 330 329 331 331 332 335 337 337 340 343 345 345 346 345 346 345 343 344 347 348 348 349 350 352 353 355 358 361 359 363 362 359 360 361 359 359 358 360 360 362 360 360 361 362 363 364 364 364 364 369 361 364 361 364 363 367 362 361 361 362 364 365 365 364 364 364 364 365 363 362 362 363 362 364 365 365 362 361 358
333 329 324 328 332 328 330 333 333 333 332 330 330 331 330 332 336 332 331 329 329 332 336 335 336 337 340 342 344 344 345 344 344 344 344 344 345 346 349 350 351 352 353 355 357 359 359 362 363 361 360 361 359 358 357 357 358 357 358 357 358 357 360 359 362 364 366 368 367 364 362 363 361 364 359 356 360 367 362 362 363 363 366 366 360 367 363 364 365 365 365 364 365 361 360 360 360
332 331 331 335 333 327 331 336 333 333 333 332 329 328 330 337 336 333 332 326 325 331 336 338 341 339 341 341 343 345 344 343 343 343 344 344 343 346 346 348 351 353 354 354 356 359 359 361 363 363 361 360 359 357 357 359 358 354 357 357 357 357 360 357 363 365 365 368 367 361 362 361 363 363 361 362 363 362 362 364 362 365 366 363 363 365 365 363 361 361 360 361 364 359 358 359 359
322 328 332 334 334 333 333 332 334 332 333 331 329 332 334 331 332 334 333 330 329 337 339 340 342 344 344 345 344 342 343 343 343 343 344 343 343 345 345 346 346 349 353 353 355 358 359 361 362 365 362 361 359 359 360 360 358 354 357 359 359 357 359 360 360 363 366 367 365 363 359 359 359 359 360 361 362 363 360 362 366 367 362 363 361 365 360 363 362 360 363 360 359 355 358 361 360
328 324 331 330 333 332 336 335 335 334 331 331 332 331 329 330 326 334 333 334 333 336 339 341 345 345 345 343 344 343 343 344 343 345 345 345 344 344 345 345 348 350 353 355 356 356 358 359 361 361 365 362 361 362 360 360 359 356 356 359 359 359 359 360 360 362 365 364 365 365 361 360 357 357 360 360 358 362 360 359 360 362 364 359 360 360 360 358 357 359 358 361 358 358 356 359 358
326 323 328 333 335 334 335 336 335 334 333 334 333 329 328 330 329 331 331 333 336 335 338 343 345 344 344 344 342 344 344 344 344 345 346 347 346 347 347 347 349 349 349 354 356 356 358 356 360 360 360 362 361 360 358 359 357 359 358 359 358 363 362 361 361 364 365 364 363 367 363 360 359 359 360 359 361 362 361 360 362 359 361 359 363 359 360 362 363 359 360 361 359 360 358 358 357
327 326 327 327 333 336 335 335 334 333 334 333 330 328 329 330 332 328 333 335 337 336 340 338 342 341 341 342 343 343 344 344 345 343 345 346 347 346 347 347 347 347 349 353 355 357 358 358 357 357 357 361 359 358 358 358 357 357 363 362 359 363 361 363 364 362 362 361 361 365 359 362 359 357 359 362 360 361 362 362 361 359 358 361 360 360 361 357 358 357 360 361 362 362 359 360 359
329 328 327 328 330 331 334 332 333 334 332 333 329 328 327 330 327 324 332 337 337 337 338 340 339 339 339 341 343 344 344 344 344 345 344 347 347 347 347 348 347 348 350 349 353 356 359 356 354 357 357 361 360 357 359 359 360 359 363 364 360 361 360 365 364 363 361 362 363 366 366 365 364 360 361 362 361 362 363 363 360 363 358 359 360 361 363 362 361 360 362 360 362 364 356 357 359
330 330 330 328 328 330 332 333 332 333 330 332 331 328 329 329 327 326 328 336 338 338 339 340 341 339 341 343 343 346 345 346 345 345 344 345 345 346 348 348 348 349 348 349 351 356 356 356 355 358 359 360 360 358 362 362 360 359 363 363 360 361 362 362 362 362 362 363 364 366 367 365 367 363 367 364 364 362 365 362 362 362 361 360 363 361 365 364 364 364 366 365 364 366 362 361 360
329 327 323 325 327 326 329 329 331 331 329 331 331 326 323 325 322 329 333 335 338 337 340 340 341 341 342 343 343 345 345 346 346 344 345 347 349 348 348 350 349 350 350 351 351 353 355 357 358 359 360 362 363 360 361 361 361 360 361 361 362 362 361 362 360 360 363 364 368 367 367 367 366 367 369 368 365 364 364 362 362 365 365 363 365 366 365 367 365 364 366 364 365 364 362 360 358
329 327 323 322 321 320 325 328 329 328 328 330 328 312 316 321 326 328 332 335 335 334 338 338 341 341 340 342 343 345 346 346 345 345 347 348 349 349 349 350 352 351 352 352 353 351 353 357 358 358 359 360 363 360 361 360 362 361 361 361 363 363 362 359 361 360 361 363 366 368 367 367 366 367 370 366 366 364 365 365 362 362 364 366 365 367 364 363 361 362 359 359 358 361 359 361 353
321 324 324 317 315 314 323 324 325 323 327 326 326 314 316 321 325 328 331 335 332 332 337 335 337 339 340 341 342 344 345 347 345 346 348 349 350 350 351 351 352 352 352 352 351 352 352 352 354 357 359 360 361 361 360 360 361 360 360 360 361 362 363 361 358 361 362 361 363 364 367 367 368 367 369 369 363 363 363 369 362 361 364 367 363 366 363 364 362 362 359 359 360 359 359 359 357
322 317 313 316 313 315 321 325 324 320 324 326 323 315 316 320 325 329 332 334 334 332 335 336 338 338 339 340 342 343 345 346 347 347 348 349 350 350 351 351 352 351 352 353 354 353 352 352 356 355 357 360 362 361 362 361 360 361 360 360 360 364 360 360 358 357 359 359 361 363 367 368 368 369 368 368 366 365 361 360 362 367 369 366 365 366 365 362 363 359 362 359 357 357 358 358 359
317 315 313 312 314 315 317 322 325 325 324 325 322 315 319 318 326 330 332 334 332 332 333 334 337 337 338 339 339 340 344 345 346 346 348 349 351 350 351 352 352 352 353 354 354 355 354 353 355 354 355 358 362 361 363 363 362 361 361 360 358 361 359 359 357 357 358 358 358 359 365 368 369 368 368 368 366 366 363 364 362 367 370 364 367 368 363 360 362 359 364 361 360 358 356 357 353
312 315 311 314 313 314 312 321 323 324 323 320 323 319 319 321 326 329 331 332 332 330 330 333 335 338 341 341 340 340 341 344 345 347 347 349 351 351 351 353 352 353 354 355 355 355 354 354 355 354 356 357 360 361 362 361 362 362 360 359 362 359 358 356 357 357 357 355 357 357 366 366 368 368 368 367 366 364 363 363 362 366 366 367 367 365 363 363 362 360 362 363 362 361 357 357 350
309 311 310 311 314 315 315 314 320 322 322 319 319 319 320 322 324 326 330 332 331 331 329 332 334 336 340 341 340 342 344 345 346 348 348 350 351 351 351 353 353 353 353 355 355 357 356 355 357 356 355 356 358 361 361 361 361 362 360 360 359 359 360 356 356 356 355 357 356 359 367 366 366 369 368 367 366 362 360 362 364 368 366 368 369 365 362 362 361 362 361 363 365 362 361 358 351
312 313 312 312 311 313 314 319 322 322 319 318 318 316 318 321 323 325 328 330 330 330 330 329 334 336 337 340 340 340 341 343 347 348 349 350 350 351 350 352 352 353 353 355 356 357 358 357 359 357 358 355 359 358 358 356 358 356 356 356 356 357 358 357 358 355 357 355 356 360 365 367 367 367 367 367 366 364 360 360 365 369 368 366 365 362 359 359 361 364 360 361 365 364 363 360 353
314 314 314 313 312 314 318 318 321 323 319 317 318 318 319 321 323 324 325 328 329 329 328 327 331 335 338 338 339 339 341 340 348 348 349 350 350 352 352 352 352 353 355 356 356 357 357 356 358 356 357 358 358 355 355 354 353 354 355 354 352 353 357 358 358 358 358 356 357 359 365 365 367 368 367 366 365 364 363 363 366 370 367 365 366 365 362 362 366 367 366 368 362 363 358 358 352
312 312 312 311 313 311 316 318 321 323 317 316 319 318 318 320 321 323 325 325 326 327 327 328 328 332 335 338 339 339 342 345 345 347 347 350 349 352 352 352 353 351 353 356 356 357 360 358 359 358 358 359 358 356 355 355 356 354 353 352 352 353 355 355 356 359 358 356 359 361 364 365 366 367 367 367 367 365 364 362 368 371 369 366 367 368 367 367 367 368 364 364 364 359 351 351 351
312 310 311 310 311 314 317 318 321 322 319 315 318 317 318 321 322 324 324 323 325 328 329 328 329 331 336 337 339 340 340 343 344 346 347 348 349 351 351 352 352 353 354 356 358 360 361 359 360 361 359 359 358 358 357 356 357 358 356 356 354 353 357 358 357 359 360 355 356 361 365 366 366 366 367 367 365 364 367 368 370 370 370 367 366 368 368 366 369 368 366 359 358 355 353 353 353
310 310 309 307 312 310 308 315 318 320 318 316 318 316 317 320 323 324 325 324 326 327 329 329 329 330 335 338 340 341 341 342 344 347 345 347 349 351 352 352 352 353 354 356 358 360 360 361 361 363 361 361 361 361 360 360 360 361 361 361 359 356 355 359 361 360 360 358 354 360 366 367 366 366 365 364 365 365 372 372 370 365 370 370 368 369 368 368 362 361 366 364 358 348 349 349 351
310 311 310 309 310 311 312 313 316 318 319 319 317 315 316 319 318 319 324 325 325 325 327 330 330 329 334 340 342 342 339 341 342 346 344 347 348 350 351 353 353 352 353 355 357 358 359 360 363 364 362 362 362 363 361 362 362 362 362 362 361 360 358 358 358 357 359 359 355 360 364 367 367 365 364 364 364 366 373 373 370 368 370 372 371 369 369 361 366 362 363 365 357 350 343 346 347
308 310 311 310 311 311 313 314 314 312 311 316 315 307 309 316 318 318 321 322 322 324 325 328 329 329 332 335 336 336 339 344 342 338 346 347 348 350 353 354 353 353 354 356 357 359 361 361 363 364 364 363 363 364 365 364 361 360 359 357 354 354 353 353 354 353 353 355 353 355 364 363 363 364 363 365 364 365 372 373 371 371 370 374 371 367 366 366 367 366 366 364 356 356 352 342 344
306 307 311 311 311 311 311 311 312 308 306 313 317 306 305 315 315 317 319 320 320 323 324 326 329 330 331 335 337 338 337 343 345 341 344 348 349 350 352 353 353 352 355 357 358 359 361 363 364 365 364 364 364 365 366 364 363 361 361 358 357 356 354 356 360 359 357 356 359 355 358 363 365 363 361 364 365 366 371 374 373 372 369 371 374 371 368 365 362 363 366 359 357 357 354 346 345
305 312 312 311 310 309 309 310 310 309 314 315 315 313 306 307 313 319 320 319 319 321 322 326 326 331 330 336 337 340 339 338 336 343 349 350 351 350 352 354 354 353 356 358 358 359 362 364 364 364 365 365 365 365 366 364 362 362 362 360 359 358 356 358 361 362 362 361 358 356 356 359 365 365 361 364 366 367 369 371 373 372 368 368 370 370 367 365 364 366 365 361 360 359 355 349 343
308 311 311 310 309 309 309 309 308 309 308 305 310 313 308 308 314 320 320 316 318 319 322 325 327 330 331 333 337 339 342 345 343 339 345 350 350 351 352 355 356 355 355 357 358 360 361 363 365 366 365 365 365 366 366 365 365 363 362 360 360 360 360 359 361 363 362 362 359 359 358 357 363 367 364 362 366 367 368 369 371 371 369 366 367 368 368 366 367 364 363 362 361 360 356 351 351
312 313 312 311 311 310 309 307 307 307 305 301 307 311 305 306 312 314 319 317 317 319 322 325 329 330 332 330 336 339 341 345 341 346 351 351 352 352 354 357 356 355 356 359 359 359 362 365 365 366 366 365 366 367 366 366 365 364 362 362 361 360 359 360 359 360 363 363 361 362 361 361 360 365 367 365 367 368 368 369 368 367 368 364 363 365 364 365 366 366 364 362 362 359 357 353 350
314 312 310 309 309 309 310 308 307 305 299 302 307 309 307 302 310 312 313 314 318 321 323 325 329 330 331 333 334 337 340 343 345 348 351 352 353 354 355 355 357 355 356 358 358 359 362 363 365 366 367 366 367 367 367 365 365 363 363 364 364 361 360 359 358 359 362 362 362 362 362 362 363 362 364 365 365 367 368 369 366 366 366 366 365 364 363 362 362 363 363 364 362 360 355 354 352
312 309 307 307 307 308 307 306 308 299 297 304 308 307 308 300 306 313 318 321 320 320 322 325 327 329 330 332 332 336 340 343 344 347 350 352 353 354 354 355 356 356 356 357 357 358 361 362 365 366 367 368 367 367 367 365 363 364 366 366 365 364 362 358 358 358 361 363 364 363 363 363 364 362 365 361 362 361 366 367 368 365 365 365 364 365 364 362 362 362 363 363 363 362 358 355 354
310 308 307 302 300 301 297 301 297 297 297 304 307 307 304 303 309 314 316 318 321 323 322 323 325 325 328 331 334 336 337 340 345 346 349 350 351 352 353 355 358 357 355 357 357 358 360 363 366 366 366 369 368 368 367 367 365 363 364 366 367 366 363 362 361 360 363 364 365 364 364 362 364 363 361 360 360 363 364 367 368 365 365 366 367 366 365 366 365 361 361 362 361 361 357 355 353
307 305 304 300 298 296 293 297 300 300 303 306 306 309 302 307 311 315 314 318 320 321 324 325 325 326 327 330 336 333 334 340 343 345 347 351 352 353 354 355 356 356 355 356 357 359 361 362 366 367 368 369 369 369 369 367 366 366 366 365 366 366 364 363 362 360 361 365 367 366 363 361 363 363 361 362 360 362 364 366 368 368 369 369 368 369 368 368 367 363 362 363 360 361 358 356 356
308 310 307 304 303 299 295 297 295 297 301 304 307 304 302 302 306 315 317 318 320 321 322 326 327 327 328 329 334 333 333 337 342 346 346 348 352 354 353 354 356 356 356 355 357 359 362 363 366 367 368 369 370 370 369 367 366 365 365 366 366 367 366 364 362 363 363 364 366 366 365 361 360 363 363 364 365 364 365 366 368 368 368 369 371 370 368 369 369 367 365 363 362 359 358 356 355
310 310 311 306 303 309 301 303 302 302 301 302 304 302 308 308 316 318 319 318 318 319 321 323 325 325 327 327 330 331 332 333 339 345 347 349 353 355 355 355 356 357 358 357 358 359 361 363 367 368 369 369 370 369 369 367 366 366 367 367 366 366 367 366 365 366 365 364 366 366 366 366 361 362 366 365 364 364 365 365 367 368 370 368 370 372 371 367 368 366 366 364 362 359 356 356 355
308 308 303 306 312 309 306 308 308 307 304 301 309 306 308 313 313 315 316 317 317 318 319 320 322 324 327 325 330 330 328 332 337 336 344 350 351 355 355 356 356 358 357 357 360 361 363 364 365 368 370 371 370 369 368 366 366 365 366 366 367 366 365 365 363 365 364 365 366 366 365 366 364 363 362 365 365 367 366 366 366 366 368 369 369 371 370 367 367 366 365 365 362 357 358 358 355
311 303 307 312 314 312 307 300 305 302 298 302 306 304 305 305 302 315 314 314 314 316 317 318 321 323 323 324 326 332 332 333 336 339 348 350 351 354 355 356 357 358 359 359 361 362 363 364 366 368 369 369 370 369 367 366 366 366 367 367 367 368 365 364 364 366 367 365 365 367 366 365 365 362 360 362 365 366 368 369 368 367 367 368 367 367 369 368 367 366 365 366 364 362 358 359 357
311 308 315 306 301 300 306 304 297 298 297 300 304 306 306 307 307 312 312 312 313 316 318 317 317 319 320 321 323 331 334 333 334 339 347 349 350 352 355 355 356 359 361 361 361 361 362 364 366 367 368 368 369 367 367 367 367 366 366 366 367 367 366 365 365 366 369 366 364 364 365 364 366 367 364 364 365 366 368 367 368 368 368 367 367 366 368 368 367 365 365 364 365 363 360 357 358
314 316 311 313 309 305 302 304 305 304 299 299 300 303 302 310 311 313 314 315 315 315 316 317 318 319 320 322 323 326 331 331 331 335 343 349 350 351 354 354 355 357 359 360 361 361 361 363 365 366 367 369 369 367 367 366 366 365 365 367 368 369 368 366 366 367 366 366 365 364 365 362 364 365 365 365 364 365 367 367 367 366 364 364 366 366 366 367 366 366 365 363 363 364 360 357 355
306 307 308 308 308 311 309 308 304 302 301 301 302 299 304 310 314 313 316 317 317 316 316 318 319 321 322 324 324 327 331 332 333 335 339 347 350 350 353 355 355 357 359 360 359 360 360 361 362 364 365 365 366 365 365 367 366 366 367 367 366 367 366 365 366 367 367 369 368 367 365 365 365 364 365 365 365 366 367 368 367 368 363 365 367 366 366 367 367 366 365 365 364 363 360 357 357
308 306 306 308 305 303 300 300 308 305 302 298 301 301 309 313 317 317 317 319 318 318 318 318 319 319 324 325 327 330 333 336 335 335 338 343 350 351 351 355 355 355 356 357 358 360 360 360 361 361 363 363 363 363 366 367 367 366 365 366 366 366 367 366 365 367 367 367 368 367 367 368 364 366 366 365 367 366 367 367 367 369 367 363 366 369 365 366 367 366 364 363 362 362 360 358 358
Wind_Speed
13 11 11 10 7 6 5 6 3 4 4 2 2 5 6 6 7 7 8 4 6 9 7 8 10 8 10 6 11 11 8 8 4 2 7 9 15 15 15 19 19 17 16 17 15 14 14 11 12 14 15 17 17 18 17 17 18 18 18 18 18 17 16 15 15 14 13 13 13 14 14 14 14 14 14 14 14 14 13 13 13 12 12 12 11 11 11 11 12 12 11 11 11 10 9 11 10
11 12 11 10 8 6 3 5 4 3 3 6 3 3 8 6 10 7 7 4 3 7 9 9 9 13 17 12 9 12 14 12 8 11 13 16 17 14 18 18 19 19 16 15 15 13 13 14 13 15 16 17 17 17 17 17 17 17 18 18 17 16 16 15 14 14 13 13 13 13 14 14 14 14 14 14 14 13 13 13 12 11 11 11 11 11 11 11 11 11 11 11 10 9 9 10 10
10 10 7 9 7 7 2 2 3 3 2 3 6 9 2 7 13 11 6 6 10 10 11 11 10 9 14 9 11 8 11 13 17 17 13 18 18 12 18 19 17 16 17 15 15 15 12 14 12 14 17 17 17 17 17 17 17 17 18 17 17 16 16 15 14 13 13 13 13 14 13 14 14 14 14 14 13 13 13 12 11 11 11 10 11 10 10 10 11 11 11 11 10 9 10 10 9
9 9 8 7 4 4 3 3 1 4 2 2 5 6 6 10 12 13 12 12 11 11 11 9 7 10 10 10 11 14 13 11 15 17 13 14 12 18 18 17 17 15 15 13 13 13 12 14 13 14 16 16 16 17 17 16 17 17 17 17 17 16 16 14 13 13 13 13 13 13 14 14 14 14 13 13 13 12 12 11 11 10 11 10 10 10 10 10 10 11 12 13 10 9 9 10 10
8 7 7 6 4 3 2 3 3 4 5 4 5 6 10 11 12 12 11 11 11 10 8 11 9 14 12 11 5 6 10 15 15 14 12 13 17 17 20 18 18 16 16 16 13 13 14 17 14 15 16 17 16 16 16 16 16 16 16 16 16 16 15 14 13 13 13 13 13 13 14 14 13 13 13 13 12 12 11 11 10 10 10 10 10 10 10 10 10 10 11 12 9 9 9 9 9
7 5 7 7 3 2 3 5 4 5 8 13 6 9 10 11 13 12 11 11 10 9 9 10 7 10 9 9 6 10 10 9 13 12 15 15 19 19 19 16 16 16 16 16 13 12 15 18 17 15 16 17 16 16 16 16 16 17 16 16 16 15 14 13 13 13 13 13 13 13 13 13 13 13 13 12 12 12 11 11 10 10 9 10 10 10 10 10 10 10 10 11 11 10 10 8 8
7 4 6 5 9 1 3 6 2 8 6 6 7 10 12 11 12 12 11 11 9 10 0 13 11 14 10 9 13 9 11 13 11 13 13 18 19 19 18 16 15 17 15 15 13 14 19 18 18 17 17 17 17 16 16 16 16 16 16 15 15 14 13 13 13 12 12 12 12 13 13 13 13 12 12 12 11 11 11 10 10 10 10 10 10 10 10 10 10 11 10 10 10 11 10 8 8
6 5 4 6 5 4 7 5 4 7 7 8 7 11 11 10 10 10 10 9 9 8 7 11 9 12 12 10 10 10 11 9 15 16 20 18 19 19 17 15 15 17 18 16 15 15 18 18 17 17 17 17 17 16 17 16 16 15 15 15 14 13 14 13 13 12 12 12 12 12 12 12 12 12 11 11 11 10 10 10 10 10 10 10 10 11 11 11 11 11 10 10 10 11 10 9 8
7 8 6 7 7 2 7 11 2 6 8 9 10 9 7 8 9 8 9 9 9 10 10 10 6 7 8 14 11 9 12 15 16 20 19 19 19 18 13 17 13 15 16 15 16 16 17 18 17 17 17 16 16 16 16 15 15 15 15 14 14 13 13 13 12 12 11 11 11 11 11 11 11 11 11 10 10 10 10 10 10 10 11 11 11 11 11 11 11 10 10 9 9 9 10 10 8
7 4 4 4 6 6 9 3 3 6 9 6 10 9 10 6 6 7 9 9 10 11 11 14 8 12 13 14 12 9 11 16 18 19 19 19 18 16 16 17 17 15 17 15 15 16 14 17 17 17 16 16 16 16 15 15 15 15 14 14 13 13 12 12 12 11 11 10 10 11 10 10 10 10 10 10 9 9 10 10 10 10 10 10 11 11 11 11 11 10 10 10 9 9 9 9 9
6 6 7 7 2 8 4 3 7 8 9 8 10 9 8 7 6 8 6 11 8 10 10 13 13 13 12 12 9 10 15 16 18 19 19 18 17 16 15 15 18 16 18 17 17 15 15 15 18 17 17 16 16 16 15 15 14 14 14 13 12 12 12 11 11 10 10 10 10 10 10 10 10 9 9 9 9 9 10 10 10 10 10 10 10 10 10 10 10 10 10 10 9 9 9 9 8
6 5 1 3 6 8 4 5 5 8 8 6 10 7 6 8 6 8 11 10 9 11 10 9 10 14 10 12 9 11 15 15 17 18 19 17 15 16 15 13 15 15 18 19 17 16 16 15 14 16 17 16 16 15 15 14 14 14 13 13 12 11 11 11 10 10 9 9 9 9 9 9 9 9 8 8 8 9 9 10 10 9 9 9 10 10 10 10 10 10 10 9 9 9 9 8 8
7 4 4 8 5 9 2 1 7 4 8 6 9 8 7 6 7 8 8 10 8 9 10 3 15 10 12 9 9 12 16 17 16 18 18 15 15 14 14 14 15 16 16 18 18 17 17 15 14 14 15 17 15 15 15 14 14 13 13 12 11 11 10 10 10 9 9 8 8 8 8 8 8 8 7 7 8 8 9 9 9 9 9 9 9 9 9 9 10 9 10 9 9 8 8 8 8
8 7 4 8 9 8 5 6 4 5 8 9 8 7 6 6 6 8 7 9 5 7 9 12 8 12 15 12 11 11 13 17 18 18 15 16 14 14 15 14 15 15 16 16 16 16 15 15 14 14 14 13 13 13 14 13 13 13 12 12 11 10 10 10 9 9 8 8 8 8 7 7 8 7 6 6 7 7 7 8 8 8 8 8 8 9 9 9 9 9 9 8 7 8 7 7 7
9 7 7 8 5 6 7 3 7 7 8 9 7 7 7 9 7 6 6 10 11 10 10 6 10 11 10 13 12 13 16 19 19 18 16 15 15 15 15 14 15 14 14 16 16 16 15 14 14 13 13 12 13 10 10 11 13 12 12 11 11 10 10 9 9 8 8 7 7 7 7 7 7 7 6 6 6 6 7 9 8 8 7 7 7 8 8 8 9 8 7 7 6 6 6 6 6
8 7 7 7 2 8 12 2 1 6 10 5 6 9 6 7 7 5 6 5 9 9 8 9 3 6 15 11 15 19 22 21 20 18 16 16 15 14 14 14 14 14 13 14 15 14 14 14 13 12 12 13 11 11 11 11 12 12 12 11 10 10 10 9 9 8 7 7 7 7 7 6 7 6 7 6 7 7 8 7 7 7 7 7 7 7 7 7 7 7 7 5 5 5 6 6 6
6 6 8 3 4 8 7 3 2 6 8 9 6 7 6 7 5 9 4 7 10 8 4 7 6 7 8 15 19 22 21 20 19 20 17 14 13 13 12 11 12 12 10 13 12 12 14 14 14 12 13 13 12 12 11 10 11 12 11 11 10 10 9 9 9 8 8 7 7 8 7 5 4 5 6 5 7 5 6 6 6 6 7 7 6 6 6 6 6 6 6 5 6 6 5 6 6
6 8 5 6 4 1 7 3 3 1 7 8 4 4 6 7 4 7 6 7 9 7 9 8 7 7 14 19 22 22 22 22 20 21 19 14 13 12 12 12 13 12 11 11 12 13 12 12 13 13 11 13 12 10 9 8 9 10 10 9 9 9 9 9 8 7 8 7 8 6 5 4 2 4 4 4 3 7 7 7 6 6 7 6 6 5 5 5 5 5 4 4 4 5 5 3 5
9 7 7 7 2 6 17 2 7 4 6 1 7 4 3 8 3 5 6 8 9 9 9 10 10 14 17 20 23 23 22 21 22 21 21 21 15 16 13 12 13 13 11 11 11 13 11 11 12 12 13 12 12 11 9 9 11 8 9 9 8 9 9 9 8 8 7 6 7 6 5 5 7 5 4 3 4 6 8 6 7 6 5 4 5 4 4 4 5 5 4 4 5 6 6 3 2
10 10 8 3 10 14 1 2 5 8 3 4 5 8 3 9 4 3 3 8 7 7 9 10 12 14 18 21 23 23 22 21 21 21 21 19 17 16 14 15 14 14 13 11 12 11 12 11 13 12 13 13 12 9 9 9 10 9 8 8 8 8 8 8 8 8 7 6 6 6 6 7 5 4 5 5 5 5 6 7 7 7 5 7 4 3 5 3 2 2 1 5 8 6 4 5 5
7 8 10 1 10 6 7 1 4 7 6 5 4 9 4 9 5 4 7 6 6 7 8 10 13 17 19 21 22 22 21 21 21 21 20 19 18 15 13 13 13 13 12 11 10 12 13 12 12 12 13 12 12 10 10 10 10 9 8 8 8 8 8 8 7 7 6 7 6 5 6 4 5 4 5 5 4 1 4 4 5 4 3 3 2 1 2 1 4 1 3 4 2 1 1 2 2
7 10 11 12 9 2 8 4 3 5 5 2 3 5 6 9 6 4 4 3 3 7 11 11 15 17 20 22 23 22 22 22 22 21 21 20 19 17 16 14 13 12 14 11 13 12 12 12 13 12 13 13 11 10 10 9 10 9 8 8 8 8 8 8 7 7 7 7 6 7 4 5 4 4 4 4 6 8 5 3 4 4 4 2 4 2 1 2 0 2 2 4 4 3 2 2 2
9 10 11 10 7 4 6 6 2 4 5 3 2 4 3 6 6 5 4 4 5 5 12 12 16 18 20 21 21 22 22 22 22 22 21 21 20 19 16 15 15 13 12 14 14 12 13 14 14 12 12 12 13 10 9 9 9 8 8 8 8 7 7 8 7 7 6 7 7 5 5 5 5 4 4 4 3 4 5 7 4 1 2 1 4 5 6 4 2 2 4 1 3 3 3 1 0
12 10 7 10 7 5 5 11 6 6 4 4 4 2 4 5 8 9 8 3 10 5 9 12 17 18 20 21 22 22 22 22 21 20 20 20 20 19 17 16 14 14 12 12 14 15 15 16 14 14 10 12 12 11 10 9 9 9 9 8 8 7 7 8 7 7 7 7 6 5 5 4 5 4 5 4 4 3 2 1 10 5 3 3 2 0 3 2 4 3 2 4 2 3 3 1 1
14 13 11 5 5 7 11 9 7 8 7 5 5 5 6 5 4 8 8 8 9 6 7 14 15 16 18 20 21 21 21 20 20 19 18 15 18 17 16 14 15 14 15 14 13 14 16 16 17 16 14 14 12 11 11 9 9 9 8 8 8 7 7 7 7 7 6 6 7 5 6 4 5 4 4 5 4 3 4 4 3 4 7 4 5 3 4 4 2 3 5 5 3 6 5 6 5
14 14 10 10 8 8 9 10 9 10 7 5 7 8 4 7 4 7 5 10 9 10 9 17 17 17 17 19 20 21 20 21 20 20 19 17 17 18 17 15 15 15 15 15 14 13 14 15 17 18 16 14 13 12 9 9 9 9 8 8 8 7 7 7 7 6 6 6 6 6 6 4 4 4 4 3 4 3 3 3 5 5 3 3 0 4 1 2 3 1 1 1 5 2 1 1 1
9 14 14 12 10 10 10 12 12 11 10 9 10 8 6 7 6 7 8 11 11 11 12 15 16 16 17 17 18 20 21 21 21 18 18 17 17 16 16 16 15 15 15 16 14 13 13 16 16 16 16 14 12 12 10 9 9 9 8 7 8 7 7 6 6 6 6 6 6 7 5 4 4 4 4 3 3 3 3 2 4 5 5 4 4 4 5 2 1 1 2 2 1 2 1 1 2
6 7 11 14 14 12 11 12 14 11 11 11 11 10 7 7 8 4 12 11 13 12 13 15 15 15 15 18 18 18 18 18 18 19 21 20 16 16 17 15 16 16 16 16 14 13 14 16 16 16 14 13 12 12 10 10 9 9 9 7 7 7 7 6 6 6 5 5 6 7 5 5 4 2 1 4 4 4 2 3 2 1 1 3 1 4 4 0 1 2 0 1 1 1 0 1 1
14 11 11 12 13 14 15 15 14 14 11 9 10 11 12 11 11 6 7 13 13 12 13 13 14 13 14 16 17 17 17 18 18 17 19 17 16 16 18 16 16 15 13 15 15 16 16 16 15 15 14 14 14 13 11 10 9 9 9 8 7 7 7 7 7 6 6 5 5 6 6 6 5 3 3 3 4 4 5 6 3 1 2 1 2 0 1 2 2 3 3 2 1 1 0 1 1
13 14 12 11 13 14 16 15 16 16 12 11 9 9 9 12 11 10 10 11 12 12 14 12 10 11 11 14 14 17 17 18 19 18 17 17 17 18 18 17 17 15 13 13 15 17 15 12 11 13 15 15 14 13 11 9 10 9 8 8 7 7 7 7 7 6 6 6 6 7 6 6 6 4 4 5 4 4 4 3 3 4 1 2 1 1 3 3 2 0 1 2 0 1 1 1 1
14 13 11 12 12 12 15 15 16 16 12 13 10 10 7 11 14 13 12 11 11 12 14 15 13 15 13 13 14 16 19 19 20 20 20 19 18 17 19 18 18 17 13 15 16 17 17 15 13 12 14 15 14 13 12 10 9 9 8 8 8 8 7 7 7 7 6 6 7 7 7 7 7 6 5 4 5 4 4 2 5 5 4 4 3 3 3 0 2 1 0 2 1 1 1 1 0
12 12 14 13 14 10 15 18 18 17 13 16 13 10 8 6 13 12 11 12 11 11 13 13 15 13 14 13 12 15 17 19 20 20 20 20 19 17 18 19 18 17 16 16 15 16 16 16 15 15 16 15 14 12 11 10 10 8 8 7 7 8 7 7 7 7 7 7 7 7 8 7 7 7 6 5 4 5 4 6 3 3 2 2 3 1 2 2 1 2 1 2 1 2 1 2 1
13 14 13 15 14 12 11 15 16 19 14 16 16 10 9 6 7 10 14 12 11 10 11 14 15 16 14 13 11 12 15 18 18 19 21 19 18 17 17 19 18 18 17 17 16 16 15 16 15 16 18 16 14 14 12 11 9 9 8 8 8 8 8 8 8 7 7 7 7 7 8 7 7 7 6 6 5 5 5 4 4 4 3 3 1 2 3 3 1 2 1 2 2 2 2 1 0
13 13 14 14 15 14 12 11 15 16 17 14 18 14 11 9 17 17 15 12 13 10 10 12 12 14 15 14 13 11 12 15 18 20 21 20 17 19 18 17 19 19 17 18 17 17 16 15 14 14 16 16 14 12 11 10 9 9 9 8 8 8 9 8 7 7 7 7 7 7 9 8 7 8 7 6 5 5 5 4 3 5 4 2 2 3 3 2 2 2 1 2 1 2 2 1 0
14 14 14 15 16 16 14 12 13 15 18 17 16 15 13 12 12 14 13 13 11 10 8 10 12 13 17 15 13 12 12 15 19 19 22 21 21 20 17 19 18 19 16 19 18 17 15 14 14 13 14 15 15 14 13 11 11 9 8 8 9 8 7 7 7 7 8 7 8 7 9 8 8 8 7 7 6 6 5 5 4 3 3 3 2 4 4 3 3 2 2 2 1 2 2 1 1
18 17 14 14 14 14 13 14 11 14 17 18 17 13 14 15 13 9 13 13 12 11 11 8 11 12 15 14 13 13 16 17 17 19 21 20 18 19 17 17 17 17 16 17 17 17 16 15 14 13 13 14 14 12 12 11 10 10 9 9 9 9 8 8 8 7 8 7 7 7 8 8 8 8 8 7 7 6 6 5 5 3 4 3 4 4 3 2 4 3 3 3 2 2 2 0 1
16 16 15 16 17 15 12 11 12 12 12 16 18 17 14 16 16 15 13 12 12 12 12 10 10 12 13 14 15 16 15 16 18 20 21 21 20 19 17 17 17 18 17 18 18 18 17 16 15 15 13 14 13 13 13 12 11 10 10 11 10 10 9 9 8 8 8 8 8 9 9 8 8 9 8 8 7 6 6 5 4 4 4 5 4 4 5 4 1 3 2 2 3 2 1 1 1
19 16 17 15 17 15 14 17 17 9 9 11 16 18 20 15 13 15 14 14 14 14 13 12 11 13 16 18 18 16 12 10 16 18 20 21 19 20 18 16 18 20 18 19 19 19 18 18 17 15 13 14 14 14 13 12 11 11 11 11 10 9 10 9 9 9 9 8 9 8 9 9 9 9 8 8 8 7 7 6 5 5 5 4 4 4 4 3 4 3 4 4 3 2 1 3 3
20 16 12 14 14 14 15 17 18 17 13 11 14 15 14 17 17 16 16 14 14 15 13 13 12 12 13 15 16 15 13 13 15 18 21 21 22 22 18 17 18 20 20 20 19 19 19 17 16 15 14 14 14 14 13 13 12 11 11 10 10 9 10 9 9 9 9 9 10 9 8 9 9 9 9 9 8 8 7 7 6 5 5 5 5 5 5 6 5 6 5 4 3 2 2 2 2
16 16 14 14 12 13 13 16 12 15 11 10 14 16 14 17 17 16 15 15 14 15 15 14 12 12 12 16 15 15 16 16 18 18 21 22 21 20 19 18 18 18 18 19 19 20 17 16 16 16 15 15 14 14 13 13 13 12 11 10 10 9 9 9 9 8 9 10 11 10 9 9 10 10 10 10 8 8 8 7 6 6 6 6 5 5 5 5 3 6 5 4 3 3 4 4 5
18 19 16 15 15 15 15 11 18 15 15 14 13 13 13 14 16 16 16 17 17 14 16 14 13 12 12 15 15 15 18 19 18 19 22 22 22 22 20 18 18 19 19 19 20 19 15 19 18 18 15 15 14 15 15 12 12 11 10 9 9 9 7 8 9 9 10 10 10 10 11 11 11 10 10 11 9 9 9 8 7 7 6 7 6 5 5 6 5 3 4 3 4 4 3 6 3
16 22 20 17 18 18 14 17 14 12 12 13 14 12 15 15 19 18 14 15 18 16 16 16 15 13 13 15 19 21 20 19 19 22 22 24 23 21 21 20 20 19 20 19 20 20 18 18 18 18 15 15 15 16 16 13 12 11 11 10 10 10 9 9 10 10 10 11 11 10 11 11 11 11 10 10 10 9 9 8 8 7 7 6 6 6 5 4 4 5 3 3 4 4 4 1 5
15 16 22 21 19 18 17 17 16 13 12 11 15 16 13 13 18 17 17 17 19 17 17 16 14 12 13 13 15 18 19 19 19 19 20 22 23 23 23 22 21 21 20 19 19 19 20 19 19 19 16 15 15 15 17 13 13 12 13 13 12 11 11 9 9 9 9 9 9 10 10 11 11 11 11 10 10 10 9 8 8 8 7 6 6 6 5 6 5 5 4 4 3 3 2 2 1
14 12 17 22 23 22 18 17 16 12 10 12 15 14 14 13 14 16 19 21 22 18 14 14 14 14 14 14 15 16 18 20 19 20 22 22 23 24 25 25 22 21 20 19 19 19 20 19 20 19 16 15 15 14 17 15 13 13 14 14 12 12 12 10 10 9 9 8 9 11 10 10 11 11 10 10 10 10 9 9 9 8 7 7 6 6 6 6 4 4 4 4 4 3 4 3 5
12 13 14 15 18 21 21 17 14 12 12 13 14 19 15 13 11 13 16 19 20 16 14 16 16 15 14 15 16 16 17 19 20 20 23 23 23 25 24 24 23 22 20 20 19 19 19 19 19 19 17 16 16 17 17 17 14 14 14 13 12 11 11 10 9 9 9 8 9 9 9 9 10 11 10 11 11 11 10 9 9 8 8 7 6 6 6 6 6 5 5 5 5 4 3 4 3
16 13 14 15 13 14 19 17 15 15 14 17 15 16 14 14 11 12 15 17 17 16 17 17 16 14 14 13 15 17 17 17 20 23 21 21 22 23 23 23 22 21 20 20 19 18 18 17 18 20 19 16 16 18 17 18 17 14 14 14 15 12 11 10 9 10 9 9 9 10 9 8 9 10 10 10 11 11 11 10 9 10 9 8 7 7 7 6 6 6 6 6 6 6 4 5 5
12 16 12 7 6 8 9 11 14 13 18 18 18 19 17 14 13 15 16 16 15 12 14 14 15 16 16 16 18 16 16 16 17 19 20 21 21 21 21 22 23 22 19 20 19 19 19 19 19 20 20 16 17 18 19 19 18 15 14 15 16 15 13 12 10 10 10 10 10 10 10 9 9 9 10 9 11 11 11 10 10 10 9 8 8 7 7 7 7 7 7 7 6 7 5 5 6
16 12 12 9 10 9 9 11 12 14 18 15 19 19 20 18 13 13 14 15 20 19 15 18 18 17 18 18 18 17 16 16 17 17 19 20 20 21 21 21 22 22 21 21 20 19 19 19 19 21 20 18 17 18 19 19 17 17 15 16 16 15 14 12 13 12 11 12 11 10 9 9 9 9 9 9 11 12 10 10 11 10 9 8 8 8 7 7 7 7 6 6 6 7 6 6 6
16 13 13 13 10 10 12 11 16 18 15 10 16 18 16 24 14 10 14 17 16 17 19 18 21 22 22 21 21 15 15 18 17 17 17 19 20 21 23 22 21 21 20 22 22 21 20 20 21 22 21 20 18 19 20 20 18 17 16 15 15 13 14 13 13 13 12 11 11 11 10 10 9 9 10 10 11 13 10 10 10 10 8 9 8 8 7 7 6 5 6 7 7 7 6 7 7
17 16 15 14 13 13 12 13 11 11 14 15 12 18 19 16 13 20 19 14 16 17 16 18 22 24 22 20 17 16 16 16 17 17 18 18 19 20 21 21 22 22 24 24 23 21 19 19 21 22 22 21 19 19 20 20 19 18 17 15 14 13 14 14 12 13 13 11 11 11 12 11 10 11 11 11 10 12 11 11 11 10 9 9 9 8 8 7 6 6 6 7 8 6 6 8 8
16 15 14 13 11 10 12 11 15 14 8 14 19 12 14 16 10 12 18 21 17 13 17 18 18 19 18 18 16 15 16 16 16 16 18 19 20 21 21 21 21 21 23 23 21 20 20 20 21 23 22 22 21 20 19 20 18 18 16 16 14 13 13 13 12 11 12 13 12 12 11 11 11 10 11 10 11 10 12 11 12 11 11 10 10 9 9 8 7 7 6 7 6 7 7 8 8
15 15 12 14 17 9 10 8 11 10 11 11 15 15 9 11 7 5 8 15 20 17 14 15 17 15 14 18 20 18 16 16 16 15 18 19 20 21 20 20 21 21 23 22 23 21 21 20 22 23 24 23 22 22 20 20 18 17 17 17 17 15 12 12 11 11 12 13 13 12 12 11 10 10 10 10 12 11 11 12 12 12 11 11 11 10 10 9 9 8 7 7 8 6 8 9 8
15 16 18 17 13 13 9 9 11 10 10 12 9 11 13 4 8 13 10 11 14 20 20 17 15 17 16 15 19 18 18 17 17 17 18 20 20 21 21 22 21 22 22 23 23 23 23 22 22 23 22 22 22 22 20 20 19 18 19 18 17 16 16 16 15 16 16 13 13 12 12 12 12 10 10 11 11 12 11 12 12 12 12 11 12 11 11 10 9 9 8 8 9 9 8 9 9
11 17 16 13 13 13 10 10 8 9 10 8 11 13 12 11 9 10 13 14 15 17 20 21 18 17 18 16 17 19 18 18 18 20 20 21 21 23 21 21 23 23 25 24 23 23 22 22 24 24 23 23 22 22 21 20 19 19 19 19 18 18 17 17 15 15 14 13 13 12 12 12 13 12 11 10 11 13 12 13 12 12 12 12 12 12 11 11 10 9 10 9 9 9 8 8 9
14 13 13 15 14 16 13 8 13 11 12 9 10 12 11 12 10 8 16 16 14 16 17 19 20 20 20 19 19 20 21 18 17 18 18 19 19 21 22 24 25 25 23 23 22 22 21 21 23 25 26 25 25 21 20 18 19 16 16 18 20 18 17 16 15 14 13 14 16 15 15 13 12 12 11 11 11 12 12 13 12 12 12 13 13 12 12 11 11 10 10 10 10 10 9 9 9
21 13 16 15 11 13 13 12 7 8 9 9 11 13 11 11 10 11 8 14 14 13 14 15 17 18 17 17 18 19 19 17 18 18 18 19 21 23 25 24 24 24 23 22 23 21 24 23 22 23 23 22 22 22 19 19 20 18 17 18 18 17 17 16 15 15 15 16 16 16 16 15 14 12 13 13 12 13 13 14 14 14 13 13 13 13 13 12 11 11 10 10 11 11 11 11 11
20 17 14 15 12 9 11 11 13 10 9 8 7 10 11 11 12 12 9 10 15 15 13 12 12 14 16 15 15 15 17 17 17 17 18 20 21 22 23 22 21 20 20 20 22 24 23 22 22 24 24 24 24 23 22 20 19 19 19 20 20 19 20 18 18 17 16 15 15 15 15 14 13 13 13 14 14 14 13 14 14 14 14 13 13 13 12 12 12 12 11 11 11 13 12 11 10
19 17 16 15 16 15 16 14 11 13 9 6 6 7 1 9 5 2 7 9 9 12 14 14 13 13 14 14 15 17 16 15 16 16 14 15 18 19 20 19 17 19 21 23 22 22 23 24 22 23 23 23 25 23 21 20 19 19 21 21 21 20 19 17 19 18 18 16 16 15 15 14 15 14 14 15 15 14 14 14 15 14 13 13 13 13 14 12 13 13 13 11 11 12 13 12 11
Wind_Direction
172 181 176 190 182 190 181 206 242 209 221 253 297 244 83 88 88 65 61 54 113 110 160 112 94 78 83 113 91 91 50 59 134 193 117 124 140 138 144 142 140 140 142 140 141 144 144 145 137 128 131 128 126 125 125 125 124 122 119 116 115 114 112 110 108 108 109 108 106 103 99 96 93 87 84 82 80 79 78 78 75 73 73 77 81 83 82 80 79 80 81 84 86 86 91 98 100
174 183 176 178 185 164 224 199 292 248 250 297 165 99 75 95 113 62 78 116 116 117 116 105 88 96 114 89 107 95 69 85 86 89 102 128 129 131 142 141 143 143 139 138 137 140 141 140 140 138 131 129 129 127 126 125 125 122 118 117 116 114 111 108 109 112 111 109 104 100 96 93 89 85 82 79 78 78 77 76 77 76 77 75 72 77 80 80 78 78 79 82 86 90 93 92 97
183 181 178 170 189 208 319 288 259 313 338 341 45 76 243 109 84 123 121 167 112 107 108 93 99 118 130 96 68 75 86 89 105 105 114 133 130 142 145 140 137 136 139 139 140 142 142 135 139 135 133 131 131 129 127 127 126 122 120 117 115 112 110 110 113 115 112 107 103 99 95 90 85 82 80 79 77 74 74 75 76 76 75 75 79 76 77 79 79 78 78 78 89 103 98 93 92
179 185 183 176 193 193 251 220 279 232 8 325 51 66 87 68 88 98 116 104 111 109 112 122 91 35 79 87 84 99 94 104 109 121 129 145 131 141 133 134 133 148 140 131 141 139 134 136 137 138 133 133 132 130 129 128 125 123 120 118 113 111 111 115 118 115 110 106 103 99 94 87 83 80 78 77 76 73 70 72 74 75 74 74 72 72 78 81 82 78 73 69 67 76 96 103 104
188 194 193 194 292 257 253 230 191 241 155 263 81 98 84 83 98 107 106 109 113 125 117 105 103 88 80 69 70 78 95 108 115 121 129 128 132 136 136 151 148 144 136 134 137 135 132 135 138 137 138 138 134 132 130 127 126 123 121 116 112 113 116 121 118 113 109 105 101 97 92 87 84 81 78 77 75 73 71 69 70 70 71 73 74 75 74 77 79 81 86 94 87 92 95 102 102
217 225 196 204 203 171 227 253 209 266 100 196 80 73 74 80 91 105 124 122 120 115 117 101 105 115 79 88 80 95 113 118 124 123 128 129 136 136 136 147 137 142 135 133 135 132 137 137 141 141 140 138 134 131 130 128 128 124 119 115 113 116 122 121 117 111 106 103 98 94 89 88 85 82 79 77 74 73 72 69 67 70 71 71 74 76 75 76 81 86 86 91 98 92 93 91 103
202 210 233 219 249 318 247 295 300 281 73 43 74 78 85 97 103 111 113 123 119 106 174 115 108 115 113 104 82 77 94 124 136 124 129 132 134 136 145 144 142 134 131 135 135 133 135 140 142 141 141 139 135 133 131 131 128 123 118 116 118 122 123 119 114 109 105 100 95 92 88 87 85 82 79 76 75 75 74 74 75 73 73 75 77 79 80 79 81 84 87 85 85 86 87 92 94
226 212 238 236 293 214 255 267 228 217 68 73 56 99 89 104 120 111 125 137 140 126 119 103 94 90 82 68 88 101 130 128 109 122 128 133 134 140 145 139 140 137 136 137 140 130 131 140 141 141 142 138 136 134 132 132 126 123 120 120 124 125 122 117 112 110 104 99 95 92 91 88 86 83 78 76 77 78 78 77 78 78 76 79 80 78 79 77 77 82 88 92 91 94 92 88 98
226 241 230 279 259 243 295 254 143 60 104 97 82 73 105 92 97 122 97 87 141 117 140 102 98 122 105 102 88 107 97 115 123 125 134 133 139 145 141 137 138 135 130 130 127 133 137 138 142 143 141 139 137 135 134 129 127 125 124 126 127 126 120 116 114 110 107 104 98 95 93 89 86 81 77 75 76 79 79 79 77 77 78 78 80 79 78 78 79 80 85 90 93 93 98 105 97
242 233 256 267 283 280 264 216 48 84 92 79 101 110 102 126 105 87 113 131 99 134 115 113 109 90 108 103 119 115 114 120 126 137 135 139 142 145 143 144 140 133 123 125 133 138 134 140 142 143 142 140 139 137 134 130 129 126 126 127 127 124 120 118 115 112 111 107 102 98 96 93 86 80 76 75 77 78 78 79 81 80 78 79 80 81 80 79 80 84 87 91 95 93 91 85 91
251 206 260 272 307 290 207 110 129 133 98 109 99 108 99 103 117 89 87 95 137 109 125 123 124 111 113 95 83 93 112 125 141 138 141 141 146 144 144 141 137 146 131 135 136 135 137 144 144 144 143 142 140 138 135 133 130 128 128 129 127 123 122 118 118 116 114 112 109 103 98 96 89 82 80 78 80 81 80 80 81 83 83 78 80 83 82 83 83 83 87 93 96 98 91 87 91
255 237 247 264 289 263 346 80 89 98 100 114 97 115 104 86 99 117 106 123 119 119 120 196 109 123 109 116 119 128 128 145 142 140 144 144 147 145 142 141 137 133 136 137 133 138 140 140 148 145 145 143 141 138 136 134 132 130 130 129 128 124 122 122 120 121 118 116 114 108 103 99 96 91 87 82 81 82 84 85 86 85 82 82 82 82 83 83 86 86 88 90 94 100 96 93 91
249 275 232 267 293 260 88 193 62 74 110 88 101 77 90 102 80 85 101 106 115 135 118 135 128 151 124 112 117 129 144 143 142 146 145 151 145 144 144 140 139 136 136 135 139 138 139 145 143 150 143 143 141 139 137 134 133 131 132 131 129 126 127 125 125 127 125 124 119 117 112 106 107 101 94 87 82 82 83 86 88 85 88 89 87 85 86 88 88 87 86 88 91 95 98 97 98
242 241 250 269 241 268 263 75 121 147 80 103 87 127 97 103 86 86 105 110 109 117 105 105 138 97 104 119 142 147 142 146 147 149 150 150 147 145 147 142 141 139 140 138 137 139 144 147 147 146 146 150 143 140 137 136 134 134 134 133 131 131 130 130 133 133 135 129 129 124 126 126 119 115 109 102 96 92 94 92 88 87 90 89 86 89 92 91 90 90 87 87 91 93 101 104 103
252 262 267 270 280 271 256 204 100 96 98 103 102 113 151 89 115 115 100 100 82 86 97 145 113 146 142 148 153 150 151 151 149 152 153 149 149 147 146 145 138 144 143 141 141 145 149 149 149 144 153 151 147 147 143 138 138 138 137 136 137 136 136 138 139 142 139 143 136 139 141 144 137 128 128 122 114 110 113 104 87 89 92 94 91 89 92 92 94 92 96 99 104 108 107 114 115
250 266 271 280 281 2 286 312 119 80 102 108 105 96 116 115 86 122 74 69 100 103 172 107 132 2 145 148 151 148 151 153 152 153 151 151 149 146 148 148 143 146 143 143 146 150 148 152 147 152 155 152 159 149 144 144 143 142 141 142 143 144 145 145 146 149 150 149 155 154 161 161 158 146 146 134 114 98 67 70 94 96 97 97 102 101 97 99 98 102 110 125 120 129 131 131 136
243 283 273 244 199 161 272 266 155 97 105 88 146 141 111 117 111 67 92 121 134 127 124 128 98 155 156 130 143 140 146 148 153 153 151 154 155 152 153 150 146 147 149 150 152 152 151 153 152 153 156 158 157 148 146 147 143 147 147 147 150 153 152 155 154 159 167 166 169 178 179 192 165 145 169 140 151 111 103 102 97 97 96 103 109 112 109 113 118 123 131 139 161 150 158 156 152
248 248 257 254 1 322 292 9 41 84 69 112 154 140 117 116 136 95 167 141 112 136 116 116 91 74 99 124 134 142 146 150 157 158 158 155 165 156 157 156 158 154 151 151 156 157 153 154 158 157 156 160 156 151 151 149 148 164 158 156 161 163 164 165 170 178 183 172 191 175 193 160 229 164 154 130 142 131 123 115 106 95 93 100 110 118 123 134 131 139 156 174 186 176 171 189 164
247 239 262 272 150 175 245 93 55 353 95 356 133 166 183 99 146 125 191 133 136 145 122 138 112 98 113 130 134 145 152 156 159 162 161 164 166 160 162 160 161 155 162 157 157 162 158 157 160 164 156 162 158 158 156 151 158 168 165 167 163 175 172 182 184 190 186 182 192 190 176 197 155 208 164 119 134 95 114 125 122 116 126 123 133 145 159 154 161 160 167 204 218 208 201 210 227
220 260 238 225 208 218 162 72 62 35 334 73 122 140 205 113 173 118 201 139 136 157 139 145 129 128 136 137 145 147 158 160 160 166 165 167 168 164 164 163 166 159 161 164 159 162 164 165 162 170 160 164 162 163 165 158 165 172 171 173 170 179 179 190 192 190 192 190 193 203 173 205 161 143 112 137 148 157 138 157 159 152 160 169 166 193 193 165 197 210 244 231 232 204 186 198 152
204 228 254 258 280 250 137 64 59 31 344 61 109 100 208 134 137 202 117 157 154 156 156 155 144 143 145 149 148 154 156 163 166 165 171 168 171 170 167 167 168 163 159 160 162 164 163 166 165 168 166 169 167 166 171 166 169 175 178 180 178 182 184 189 192 190 191 195 198 207 216 148 189 163 162 179 144 245 170 150 149 166 155 153 139 137 301 150 224 70 248 234 313 99 65 116 117
261 237 261 205 253 30 315 43 46 2 344 49 104 186 165 118 160 186 176 199 137 160 148 158 147 151 151 157 153 157 164 163 169 169 173 174 171 172 169 174 169 169 154 160 165 163 163 172 171 166 169 174 174 170 175 164 169 181 180 183 184 187 186 192 189 188 186 194 202 206 210 157 206 177 171 187 157 174 158 141 126 219 148 160 191 170 189 262 123 211 239 256 214 233 73 63 87
240 242 246 266 246 6 331 288 40 307 328 348 202 69 91 158 168 176 205 185 111 37 136 150 145 150 156 155 157 163 166 168 169 173 175 176 176 174 169 175 172 169 171 167 163 166 168 178 172 170 170 174 178 175 177 167 182 187 178 186 187 190 187 191 192 185 186 186 208 210 202 175 202 179 175 182 190 179 145 160 89 130 179 113 185 204 168 180 243 207 266 356 315 23 73 65 135
235 260 212 231 260 192 219 277 280 262 272 297 342 120 236 138 215 150 191 230 107 99 124 132 140 149 157 160 163 168 168 170 174 174 176 180 177 178 172 174 171 168 171 168 166 169 172 173 171 171 171 176 177 177 179 175 181 190 183 181 194 185 191 190 189 189 172 184 207 198 223 191 196 196 166 179 189 191 132 87 167 130 57 230 183 216 177 153 181 251 251 23 309 5 32 333 10
229 238 256 269 207 228 210 231 246 249 266 256 238 249 216 181 282 134 193 178 129 128 142 116 137 150 164 163 169 167 171 173 173 176 174 183 181 179 174 172 173 169 174 170 170 171 173 172 170 173 174 182 178 178 182 181 183 192 180 188 192 175 200 189 188 181 180 186 186 200 213 220 203 190 174 176 193 170 137 211 82 162 169 190 185 163 211 171 233 140 234 167 281 62 1 1 340
223 239 243 247 231 217 225 230 236 246 251 247 240 230 223 214 169 232 189 169 155 151 163 146 154 159 169 172 171 171 172 176 176 176 175 179 183 181 177 175 176 174 174 172 171 174 174 172 175 178 173 180 178 182 182 184 183 189 182 189 187 180 199 194 181 186 187 184 180 192 198 230 221 201 166 195 155 155 188 189 176 167 125 248 248 203 137 250 191 127 187 325 94 108 16 13 112
222 230 243 250 237 231 220 232 234 239 241 234 235 230 219 200 202 187 199 157 174 163 168 152 157 167 171 175 177 173 177 176 178 175 178 178 182 184 179 176 179 175 174 176 176 175 173 176 177 177 176 178 174 185 181 184 185 185 185 184 188 186 194 194 189 196 187 187 179 174 191 224 257 224 171 173 170 174 170 191 239 119 209 185 197 50 305 293 355 296 10 346 42 80 201 114 278
229 261 251 234 244 244 244 231 236 237 231 231 242 248 226 228 187 238 162 170 169 169 162 159 163 174 171 175 178 174 178 179 178 179 178 178 180 183 181 178 180 176 175 180 173 177 173 181 175 175 176 174 176 182 183 184 185 185 182 188 189 189 188 198 195 201 190 188 174 165 188 195 231 235 93 167 200 182 141 267 192 263 61 249 139 167 213 289 306 27 89 325 300 290 228 153 211
242 229 239 239 234 236 225 235 230 227 238 221 231 245 232 209 217 204 161 164 167 177 164 163 170 168 178 180 175 177 180 180 180 183 181 180 179 183 183 178 180 176 174 183 174 170 177 182 176 177 176 175 181 184 181 184 184 185 183 190 186 188 189 203 197 198 190 186 164 176 179 194 207 223 177 189 197 193 155 205 182 274 220 210 228 150 281 253 214 209 170 215 240 323 188 86 210
232 236 247 251 248 240 229 223 227 223 227 216 210 235 218 206 199 168 193 164 165 178 170 161 181 163 190 185 179 176 178 180 184 185 182 179 181 184 182 179 180 176 174 182 178 177 172 180 180 178 177 177 186 185 183 185 182 184 187 188 183 184 196 199 200 198 187 189 177 180 183 188 191 215 192 202 207 202 193 185 213 202 199 254 267 223 220 202 222 182 258 284 163 273 277 86 300
224 225 231 241 239 234 219 219 212 227 205 211 219 237 228 192 183 170 196 167 170 184 170 160 191 176 181 188 191 184 178 184 184 184 184 181 181 182 183 181 180 179 173 181 182 181 174 177 177 181 176 178 185 187 182 186 185 187 187 188 183 185 195 201 199 192 189 192 187 178 189 183 195 200 204 197 211 220 201 239 201 204 174 209 234 187 284 293 240 222 306 291 351 294 318 9 304
216 225 225 227 238 231 223 205 207 220 198 205 211 234 234 196 157 189 192 175 182 197 175 177 177 176 171 188 197 196 184 182 185 185 184 183 182 183 182 184 179 183 176 179 180 182 177 182 174 177 179 178 183 188 180 182 187 192 190 189 187 190 198 201 203 201 189 193 194 177 187 185 187 196 198 204 210 211 217 202 160 269 151 222 243 90 242 263 303 314 268 290 295 324 343 293 66
212 228 231 224 221 236 230 197 209 208 215 190 212 226 209 183 119 209 182 172 191 197 193 181 182 175 173 175 187 206 197 182 187 186 184 183 182 185 181 183 181 183 175 179 179 181 182 181 180 178 178 180 181 184 181 181 181 189 194 188 194 189 201 199 206 205 193 199 198 184 175 187 187 190 198 201 214 220 222 229 153 225 173 241 199 210 235 246 237 238 229 283 314 315 297 339 351
213 211 233 233 226 214 229 184 200 199 219 204 205 230 219 192 169 207 177 185 187 204 194 189 192 163 165 175 176 199 213 196 187 185 185 185 181 184 182 183 180 183 175 178 181 180 182 182 182 185 177 179 177 181 182 181 184 188 189 190 197 195 206 205 199 206 208 198 192 193 168 184 185 188 198 198 213 228 228 233 227 178 193 214 215 234 251 254 233 260 228 258 309 300 303 315 312
209 206 214 227 239 230 217 208 180 207 199 226 197 214 225 224 190 188 177 185 205 205 210 200 185 181 155 177 186 190 209 205 189 187 183 183 182 183 181 181 182 182 180 180 180 179 184 181 180 193 176 181 175 182 183 184 187 187 191 195 191 201 210 212 207 202 208 203 192 186 164 185 184 192 191 199 206 220 221 226 235 187 209 199 232 245 231 223 255 223 247 268 237 275 313 336 356
220 214 216 226 226 222 231 207 196 206 201 212 226 214 209 219 230 204 183 193 214 207 209 214 184 185 167 178 184 191 208 201 195 185 184 182 182 179 181 179 182 181 182 176 177 178 183 178 178 189 178 182 171 178 183 189 186 188 193 195 197 199 207 205 214 207 207 206 198 184 177 188 186 190 193 196 208 216 226 223 215 215 214 220 235 247 250 231 212 222 235 247 238 245 241 29 201
231 229 227 221 227 233 209 227 215 203 231 211 213 231 231 217 219 223 220 193 207 218 212 209 193 180 165 185 190 201 200 204 201 184 184 183 180 178 181 176 181 180 180 175 179 180 182 183 179 183 179 182 175 179 184 189 187 188 195 201 199 194 204 202 205 212 209 204 193 191 185 192 191 189 192 198 201 210 225 225 214 209 216 216 224 246 261 251 198 225 239 215 245 236 177 170 203
240 234 227 228 224 232 215 203 210 199 214 222 221 218 226 227 223 225 215 196 207 212 213 209 208 186 181 189 190 194 196 211 207 190 184 179 182 178 179 177 181 179 182 177 181 179 181 184 180 181 181 180 181 183 180 191 191 192 193 199 199 195 196 204 204 204 211 198 201 193 182 198 194 191 193 196 202 207 212 215 212 201 205 222 215 232 244 228 233 228 221 213 220 241 210 226 167
232 239 240 241 227 227 232 216 199 209 205 232 229 235 228 233 222 222 227 208 204 210 212 214 209 207 171 183 187 179 193 211 203 195 181 180 182 179 180 179 182 180 179 179 179 179 181 184 180 181 182 182 183 184 184 187 191 193 195 197 202 196 197 201 208 203 203 202 198 193 192 192 195 193 194 196 202 204 209 208 199 202 204 214 211 218 228 229 224 222 217 224 197 178 205 194 152
229 226 231 230 230 221 214 227 209 201 214 229 228 235 228 231 239 236 230 233 227 198 208 216 209 207 195 175 175 178 196 204 205 192 184 179 181 179 180 182 182 180 180 179 180 181 181 185 182 181 183 185 184 185 188 189 190 191 195 200 202 215 194 194 205 206 203 207 201 189 195 197 196 193 195 197 202 202 206 205 202 209 197 212 211 213 218 217 171 235 218 202 209 214 186 163 180
226 235 225 232 231 221 241 205 215 211 195 233 243 239 239 233 231 228 223 228 239 204 198 215 227 208 202 165 169 185 196 199 202 196 190 180 179 181 181 180 182 183 182 182 182 181 182 184 182 182 182 185 186 186 187 187 187 190 193 201 202 213 211 197 201 205 202 205 210 186 196 200 196 198 196 200 202 201 203 202 203 205 199 200 205 213 218 233 190 235 236 199 201 237 237 143 163
221 227 235 233 235 244 227 247 246 219 226 214 223 240 237 226 231 229 224 220 219 217 198 205 216 216 195 187 181 188 194 190 197 198 196 182 179 178 177 181 185 186 185 185 184 182 181 181 182 181 182 185 187 186 185 187 187 187 188 195 197 202 208 198 202 205 201 199 209 195 198 205 199 201 200 199 204 201 203 202 202 206 202 200 200 216 222 229 220 221 197 214 203 216 280 217 148
223 216 221 235 243 242 246 239 235 216 226 212 213 240 238 225 234 226 228 234 232 216 200 197 205 212 199 205 191 177 188 187 189 205 204 189 179 177 179 182 187 189 186 184 185 183 182 179 181 181 183 184 187 186 185 188 188 190 192 194 198 197 203 203 198 208 207 200 206 203 192 197 202 202 202 199 202 205 204 202 202 207 209 206 202 204 213 222 217 214 198 206 213 180 206 225 234
228 219 210 218 230 240 244 245 244 255 244 254 239 215 247 242 231 232 228 227 229 221 182 201 206 200 211 199 200 188 186 184 188 204 199 190 182 181 181 182 185 188 184 183 185 183 183 180 180 182 184 184 185 184 186 187 190 190 192 198 200 201 202 202 197 201 206 206 203 213 199 194 197 204 206 195 201 205 206 205 203 207 213 218 208 210 216 218 221 193 195 211 182 190 172 190 201
228 223 230 219 220 228 235 239 244 244 248 237 234 243 240 236 234 228 228 232 227 200 192 201 212 201 206 209 201 192 193 188 179 197 200 192 187 187 183 181 185 184 183 185 185 184 182 180 179 180 183 183 184 185 184 188 192 190 194 197 202 203 203 203 199 201 204 207 207 206 210 193 192 199 208 199 197 206 203 207 205 207 213 217 215 218 217 214 212 194 198 194 183 174 169 188 179
219 237 219 228 221 225 224 229 236 238 239 241 234 225 242 245 233 236 232 241 225 205 209 211 204 207 201 220 214 196 190 191 188 196 194 193 191 191 187 182 180 184 184 184 184 181 178 179 180 180 183 184 181 184 185 187 191 193 195 200 201 201 200 203 203 197 204 201 207 203 205 200 195 197 203 206 194 203 205 204 207 210 213 217 222 222 213 211 206 204 203 201 186 195 165 182 185
214 218 230 220 228 226 232 238 228 236 240 236 233 235 242 252 221 224 222 219 233 210 197 204 200 202 197 207 215 205 189 190 192 192 193 193 192 191 187 184 184 183 181 181 183 183 179 179 180 181 183 182 182 183 186 188 189 194 198 200 203 201 196 196 200 200 196 202 203 202 201 201 202 197 201 204 207 202 204 205 208 208 211 210 217 222 217 215 202 202 203 197 190 195 181 182 187
210 211 206 196 210 218 229 218 224 236 240 231 229 234 234 249 230 231 232 225 215 223 206 188 200 201 199 197 211 204 192 191 193 192 191 190 190 190 189 189 186 184 181 181 185 182 181 180 179 180 182 183 182 183 185 188 189 193 198 201 203 202 196 195 199 202 195 199 201 200 198 200 205 205 201 200 206 209 204 206 210 209 205 207 209 213 219 213 219 199 195 188 189 200 182 182 199
203 209 201 204 192 196 206 205 212 221 236 220 223 225 235 238 240 243 226 231 233 215 217 198 200 205 203 196 206 205 192 194 194 192 190 187 190 190 191 188 185 185 184 182 184 184 182 180 179 180 182 182 182 183 185 187 189 193 196 199 202 200 199 198 199 201 198 198 199 200 196 199 200 208 208 207 203 206 200 203 206 208 201 203 206 207 213 219 218 212 186 190 190 192 190 194 198
197 204 196 195 199 194 207 207 225 237 227 231 232 211 237 250 235 225 240 237 224 223 216 208 205 211 202 191 191 206 202 195 192 190 192 188 189 192 191 188 186 186 186 183 183 183 182 182 181 181 181 181 182 183 184 186 189 192 194 199 201 198 200 200 201 202 202 199 198 201 201 200 201 205 207 210 210 201 202 202 203 206 204 198 200 204 205 203 207 218 194 193 195 195 194 196 204
198 204 203 201 216 201 204 207 211 221 234 203 218 233 232 230 224 224 223 227 237 227 220 207 210 220 195 181 179 213 210 197 194 189 192 190 189 190 190 190 188 188 188 185 184 183 181 183 181 181 179 181 181 183 185 187 189 192 193 197 199 198 199 200 203 205 204 203 201 202 204 205 206 206 208 206 209 206 200 200 199 203 201 198 194 198 197 196 197 203 211 200 207 194 200 204 204
197 200 207 208 215 218 229 205 225 218 218 226 195 220 226 239 257 265 237 218 216 220 224 216 200 217 196 189 178 194 214 205 189 192 193 193 188 188 190 190 190 189 188 188 185 183 184 185 182 182 180 180 182 183 185 186 188 189 192 194 198 199 198 199 200 204 208 206 204 204 204 208 211 207 206 207 203 207 202 202 198 203 201 199 197 195 196 194 193 199 200 200 205 200 200 206 212
182 197 207 211 206 226 235 244 234 243 239 233 205 208 218 249 221 215 218 238 216 210 212 214 205 203 208 197 176 186 204 207 186 192 199 192 189 188 190 190 191 190 189 190 187 185 184 182 182 183 183 181 183 184 185 186 187 186 192 194 196 196 198 198 199 202 206 206 206 206 206 206 208 211 208 205 205 201 203 201 201 202 201 200 199 197 198 198 192 197 199 197 201 209 196 204 210
175 205 205 204 220 236 237 236 204 220 234 228 218 214 206 211 232 196 203 210 218 209 209 211 208 201 201 206 189 182 199 204 191 191 189 189 189 188 191 192 192 192 193 192 188 187 183 182 182 182 183 183 184 184 185 185 185 188 188 192 194 197 197 200 201 201 203 205 205 206 206 205 207 207 209 209 204 202 201 201 201 201 198 200 202 201 201 199 193 198 199 198 199 207 202 201 209
222 204 186 203 187 210 212 240 232 213 215 233 226 229 230 206 215 213 204 203 212 210 200 209 207 208 208 204 202 181 192 199 193 194 188 187 188 188 191 193 194 194 192 193 190 188 187 186 184 183 184 186 185 186 186 186 185 187 188 191 193 195 198 199 201 201 199 205 207 204 206 206 205 205 205 210 205 204 201 200 201 200 200 198 199 200 196 198 195 199 198 197 199 200 206 202 205
227 222 200 208 223 210 203 209 242 242 232 214 225 225 235 216 227 213 186 194 199 205 194 209 207 197 198 198 196 184 189 199 196 194 191 188 190 191 192 195 194 192 191 191 190 190 192 189 186 188 187 186 186 186 185 186 187 189 189 190 193 194 195 198 198 198 201 204 207 207 206 205 205 202 204 204 208 207 203 203 201 202 201 200 197 199 196 195 195 199 198 200 195 196 203 208 205
195 217 212 189 221 206 224 203 218 219 233 232 233 212 218 222 207 209 183 177 194 197 198 200 223 194 191 194 191 180 190 198 199 191 190 193 192 194 193 194 194 191 188 190 191 193 193 191 191 190 187 188 187 188 187 188 188 191 189 189 191 193 195 196 198 197 201 204 206 208 206 207 201 205 203 203 205 208 206 204 205 203 204 199 197 198 196 193 195 196 201 203 202 193 201 207 207
197 202 209 200 193 202 202 214 197 223 231 234 242 255 169 85 63 123 200 164 177 201 198 189 204 213 193 186 192 184 185 198 204 195 185 204 196 194 191 189 192 191 190 193 194 192 192 194 193 192 191 190 190 189 189 187 189 190 191 191 192 192 194 194 196 197 200 202 205 204 206 203 204 202 203 204 203 205 207 205 208 204 205 202 197 197 198 196 196 197 200 200 207 198 197 205 205